User: anonymous   Login
Location: Allonne
(49.4086°N, 2.1143°E)
Time: 18:46:23
(UTC+00:00)
Language:

Cosmos 1328 - Orbit

View from above orbital plane
View from above orbital plane
View from above satellite
View from above satellite

Ground track
Ground track

The orbit data is extracted from the following two-line orbital elements,

1 12987U 81117A   23152.62339101  .00006134  00000-0  34987-3 0  9991
2 12987  82.4999 279.7883 0019396 118.9049 241.4131 15.12429689260140
Epoch (UTC): 01 June 2023 14:57:40
Eccentricity: 0.0019396
inclination: 82.4999°
perigee height: 515 km
apogee height: 542 km
right ascension of ascending node: 279.7883°
argument of perigee: 118.9049°
revolutions per day: 15.12429689
mean anomaly at epoch: 241.4131°
orbit number at epoch: 26014

The dashed part of the orbit path shows where the satellite is in the earth's shadow,  

DLR